Dewpoint
44 48 50 56 64 67 68 69 68 70 70 70 71 71 70 71 71 71 71 71 71 70 69 68 68 68 67 67 66 67 66 66
39 44 45 47 54 58 62 67 68 68 69 69 69 69 70 70 70 70 71 71 71 69 68 68 68 67 67 66 65 66 66 66
36 41 40 43 47 51 55 59 64 67 68 68 68 69 69 69 69 69 70 70 70 69 68 67 66 66 66 66 65 65 65 66
35 36 39 41 41 47 49 53 57 60 66 68 68 69 69 69 69 68 69 69 69 68 68 66 66 66 66 66 65 65 64 65
33 33 38 38 39 43 45 48 52 57 57 60 67 68 69 69 69 69 69 69 69 68 67 66 65 65 64 64 64 64 64 65
31 32 36 35 38 40 44 45 46 50 54 57 61 67 67 68 68 68 68 69 68 68 67 65 64 64 64 64 64 64 64 65
30 31 32 34 34 35 39 42 44 48 50 52 59 60 65 67 68 68 67 67 67 66 66 65 64 64 64 64 63 63 63 64
30 30 31 32 33 34 35 40 43 46 47 48 55 58 58 62 67 67 67 67 66 66 65 65 64 64 64 64 63 63 63 64
29 30 31 32 33 34 35 37 40 43 44 46 50 51 56 58 60 66 66 67 66 66 65 65 63 63 63 63 64 64 63 63
29 30 32 32 33 34 34 36 39 41 44 45 47 49 51 56 59 58 65 67 66 65 65 64 63 63 62 62 63 64 64 63
29 30 31 32 33 34 35 36 37 40 42 45 46 48 50 53 56 57 59 64 66 65 64 64 62 63 62 62 62 63 63 63
29 30 31 32 33 33 34 35 36 37 39 41 45 47 48 49 50 56 58 59 64 65 64 64 63 62 62 62 62 62 63 63
29 30 31 32 32 32 32 32 34 35 38 40 42 44 46 48 50 53 56 57 59 64 65 63 64 64 61 61 60 61 62 62
29 29 30 31 32 33 33 32 34 35 37 40 42 43 46 48 50 52 57 57 59 59 62 64 63 63 61 60 58 59 60 61
29 30 30 31 31 32 34 35 35 36 36 38 40 42 45 47 48 49 50 53 53 61 63 64 62 63 63 59 57 56 58 59
29 30 30 30 30 32 34 34 35 37 38 39 41 44 45 44 46 48 49 52 54 60 60 58 61 61 62 62 58 57 55 54
29 29 30 30 30 32 33 34 36 37 39 40 42 44 45 47 48 50 50 51 55 58 61 60 58 61 61 61 59 56 55 52
29 30 29 30 30 31 33 34 34 35 37 39 40 42 45 46 50 51 52 52 54 55 62 61 61 62 62 62 60 58 56 55
30 30 29 29 30 30 33 34 34 35 35 36 38 40 42 44 45 47 53 55 56 57 59 60 61 61 62 61 61 60 60 58
30 30 29 29 30 31 34 34 33 34 34 34 35 37 38 41 43 47 53 54 56 57 57 59 60 60 61 57 61 60 60 59
Lifted_Index
-3 -3 -3 -4 -4 -4 -4 -4 -4 -5 -5 -5 -5 -5 -5 -6 -6 -6 -6 -5 -5 -3 -2 -2 -1 -1 -1 -1 -1 -1 -1 -1
1 1 -0 -1 -2 -3 -4 -4 -4 -4 -5 -5 -5 -5 -5 -5 -5 -6 -6 -5 -5 -4 -2 -2 -1 -1 -1 -1 -1 -1 -1 -1
7 7 6 4 2 -0 -2 -3 -3 -3 -4 -4 -5 -5 -5 -5 -5 -5 -5 -5 -5 -4 -3 -2 -1 -1 -1 -1 -1 -1 -1 -1
11 11 10 9 8 5 2 0 -1 -2 -3 -3 -4 -5 -5 -5 -5 -5 -5 -5 -5 -4 -3 -2 -2 -1 -1 -1 -1 -1 -1 -1
11 11 11 11 11 10 8 6 3 1 0 -1 -3 -4 -5 -5 -5 -5 -5 -5 -5 -5 -4 -3 -2 -1 -1 -1 -1 -1 -1 -1
11 12 12 12 12 12 11 11 9 7 6 3 -1 -3 -4 -5 -5 -5 -5 -5 -5 -5 -4 -3 -2 -2 -1 -1 -1 -1 -1 -1
11 11 11 12 12 12 12 12 12 11 10 8 4 0 -2 -3 -4 -5 -5 -5 -5 -5 -4 -3 -3 -2 -1 -1 -1 -1 -1 -1
11 11 11 11 11 12 12 12 12 12 12 11 9 5 1 -1 -3 -4 -5 -5 -5 -5 -4 -4 -3 -2 -1 -1 -1 -1 -0 -1
12 12 12 12 12 12 12 12 12 12 12 12 11 10 6 2 -1 -3 -4 -5 -5 -5 -4 -4 -3 -2 -1 -1 -1 -1 -1 -0
12 12 12 12 12 12 12 12 12 12 12 12 12 12 10 6 3 -0 -3 -4 -4 -5 -4 -4 -3 -2 -2 -1 -1 -1 -1 -1
12 12 13 13 13 13 13 13 13 13 13 12 12 12 12 10 7 4 -0 -3 -4 -4 -4 -4 -3 -3 -2 -2 -1 -1 -1 -2
13 13 13 13 13 13 13 13 13 13 13 13 12 12 12 12 10 7 3 0 -2 -3 -4 -4 -3 -3 -2 -2 -1 -1 -1 -2
13 13 13 13 14 14 14 14 14 14 14 14 13 13 13 12 11 8 6 3 0 -2 -3 -3 -3 -3 -3 -2 -2 -1 -1 -1
12 13 14 14 15 16 16 16 15 15 14 14 13 12 12 12 11 9 7 5 3 -0 -2 -3 -3 -3 -3 -3 -2 -2 -2 -2
12 13 14 15 17 17 16 15 15 14 14 13 12 11 11 11 11 10 9 8 5 1 -1 -1 -2 -3 -3 -3 -2 -2 -2 -2
13 13 14 16 17 16 15 14 13 14 14 14 13 11 10 10 10 10 10 9 6 2 -0 -0 -0 -2 -3 -3 -2 -2 -2 -2
12 13 14 15 16 16 16 15 14 15 15 15 13 12 10 9 8 8 8 8 6 3 0 0 0 -1 -2 -2 -2 -2 -2 -2
12 12 13 14 16 17 18 17 16 16 15 14 13 11 10 9 7 6 6 6 5 3 0 -0 -0 -1 -2 -2 -2 -2 -2 -2
11 11 12 14 16 18 19 19 18 17 16 14 13 11 10 8 7 5 4 4 3 2 1 0 0 -0 -1 -2 -2 -2 -2 -2
10 11 12 14 16 18 20 21 20 18 17 15 13 11 9 8 6 4 3 2 1 1 1 1 1 0 -1 -1 -1 -2 -2 -3